[[{"header":{"parameterUnit":"m.s-1","parameterCategory":1,"la1":30.2991,"la2":30.254,"lo1":-89.0895,"lo2":-89.0444,"dy":0.0017,"dx":0.0017,"nx":28,"ny":28,"refTime":"2024-09-01T09:00:00:Z","depth":0,"parameterNumber":2,"parameterNumberName":"U-component_of_WINDS"},"data":[0,0,0,0,0,0,0,0,0,0,0,0,0,0,0,0,0,0,0,0,0,0,0,0,0,0,0,0,0,0,0,0,0,0,0,0,0,0,0,0,0,0,0,0,0,0,0,0,0,0,0,0,0,0,0,0,0,0,-1.4138,-1.4138,0,-1.4086,-1.4086,-1.4085,-1.4038,-1.4038,-1.4037,-1.4037,-1.3982,-1.3981,-1.398,0,0,0,0,0,0,0,0,0,0,0,0,0,-1.4199,-1.4198,-1.4138,-1.4138,-1.4137,-1.4086,-1.4086,-1.4085,-1.4038,-1.4038,-1.4037,-1.4036,-1.3982,-1.3981,-1.398,0,0,0,0,0,0,0,0,0,0,0,0,0,-1.4162,-1.4198,-1.4138,-1.4108,-1.4105,-1.4086,-1.4085,-1.4085,-1.4039,-1.4038,-1.4037,-1.4036,-1.3983,-1.3981,-1.398,-1.3988,0,0,-1.3976,-1.3975,0,0,0,0,0,0,0,0,-1.4165,-1.416,-1.4113,-1.411,-1.4106,-1.4068,-1.4087,-1.4052,-1.4039,-1.4064,-1.4037,-1.4036,-1.4011,-1.4007,-1.3999,-1.3985,-1.3983,-1.3976,-1.3975,-1.3974,-1.3974,0,0,0,0,0,0,0,-1.4167,-1.4162,-1.4118,-1.4112,-1.4108,-1.4097,-1.4091,-1.408,-1.4043,-1.4061,-1.4058,-1.4052,-1.4009,-1.4001,-1.3998,-1.3982,-1.3976,-1.3974,-1.3973,-1.3973,-1.3974,-1.3975,0,0,0,0,0,0,-1.4174,-1.4165,-1.4119,-1.4116,-1.4134,-1.4097,-1.409,-1.4081,-1.4043,-1.4036,-1.4053,-1.405,-1.4004,-1.4,-1.3996,-1.4003,-1.3974,-1.3973,-1.3972,-1.3973,-1.3974,-1.3975,0,0,0,0,0,0,-1.4176,-1.4171,-1.4121,-1.4139,-1.4132,-1.4097,-1.4087,-1.408,-1.4072,-1.4036,-1.4029,-1.4051,-1.4003,-1.3998,-1.3991,-1.4,-1.3972,-1.3971,-1.3972,-1.3973,-1.3974,-1.4017,0,0,0,0,0,0,-1.4178,-1.4172,-1.4173,-1.414,-1.4132,-1.4117,-1.4088,-1.408,-1.407,-1.4066,-1.4033,-1.4027,-1.4002,-1.3993,-1.3989,-1.3998,-1.397,-1.3971,-1.3973,-1.3974,-1.4014,-1.402,-1.4024,0,0,0,0,0,-1.418,-1.4187,-1.4174,-1.4168,-1.4133,-1.4117,-1.4113,-1.4084,-1.4071,-1.4073,-1.4051,-1.4028,-1.4001,-1.3993,-1.3988,-1.3996,-1.397,-1.3972,-1.3974,-1.4012,-1.4019,-1.4024,0,0,0,0,0,0,-1.4221,-1.4182,-1.4167,-1.4163,-1.4144,-1.411,-1.4111,-1.4091,-1.4075,-1.4072,-1.4038,-1.4031,-1.4028,-1.4012,-1.4004,-1.4003,-1.3982,-1.3984,-1.4013,-1.4019,-1.4023,-1.4027,-1.3969,0,0,0,0,0,-1.423,-1.422,-1.4186,-1.4186,-1.4178,-1.4146,-1.4138,-1.4119,-1.4097,-1.4089,-1.4066,-1.4046,-1.4034,-1.4026,-1.4012,-1.4013,-1.4006,-1.4017,-1.4022,-1.4026,-1.4026,-1.4027,-1.4032,-1.3981,-1.3981,-1.3981,0,0,-1.4247,-1.4225,-1.422,-1.4194,-1.4177,-1.4168,-1.414,-1.4131,-1.4124,-1.4087,-1.4079,-1.4063,-1.4039,-1.4036,-1.4034,-1.4023,-1.404,-1.4028,-1.4032,-1.403,-1.403,-1.4035,-1.4039,-1.3983,-1.3982,-1.3982,0,0,-1.4274,-1.4256,-1.4255,-1.4239,-1.4215,-1.4194,-1.4195,-1.4164,-1.4151,-1.4143,-1.4116,-1.4108,-1.4087,-1.4071,-1.406,-1.4087,-1.4065,-1.4083,-1.4107,-1.4108,-1.4112,-1.4116,-1.4125,-1.4129,-1.4085,-1.4085,-1.4085,0,-1.4299,-1.4284,-1.4256,-1.425,-1.424,-1.4208,-1.4207,-1.4193,-1.4165,-1.4159,-1.4147,-1.4121,-1.4103,-1.4097,-1.4104,-1.4096,-1.4096,-1.4085,-1.4114,-1.4117,-1.412,-1.4129,-1.4132,-1.4087,-1.4087,-1.4086,-1.4086,0,-1.4316,-1.4307,-1.4309,-1.4284,-1.4274,-1.4271,-1.4243,-1.4236,-1.4219,-1.42,-1.4194,-1.4171,-1.4153,-1.4151,-1.4133,-1.4143,-1.4137,-1.4121,-1.4099,-1.4128,-1.4135,-1.4138,-1.409,-1.4089,-1.4089,-1.4088,0,0,-1.4363,-1.4326,-1.4327,-1.4317,-1.4289,-1.4282,-1.4278,-1.4261,-1.4257,-1.424,-1.4236,-1.4221,-1.4206,-1.4194,-1.4174,-1.4176,-1.4199,-1.4159,-1.4158,-1.4167,-1.421,-1.4222,-1.4227,-1.4186,-1.4187,-1.4187,-1.4212,0,-1.4385,-1.4376,-1.4353,-1.4351,-1.4343,-1.4315,-1.4312,-1.4295,-1.4279,-1.427,-1.4252,-1.4241,-1.4223,-1.4216,-1.4216,-1.4196,-1.4207,-1.4194,-1.4182,-1.4182,-1.4187,-1.4231,-1.4242,-1.4267,-1.4215,-1.4216,-1.4216,0,-1.4409,-1.4395,-1.4393,-1.4368,-1.4364,-1.4362,-1.4346,-1.4338,-1.432,-1.4308,-1.4297,-1.4276,-1.4272,-1.4253,-1.4247,-1.4239,-1.4233,-1.4223,-1.4224,-1.422,-1.4199,-1.4227,-1.4274,-1.4278,-1.422,-1.422,-1.422,0,-1.4444,-1.4425,-1.4422,-1.4413,-1.4385,-1.4384,-1.4372,-1.4353,-1.4345,-1.4332,-1.4327,-1.4313,-1.4306,-1.4296,-1.4273,-1.4262,-1.427,-1.4249,-1.426,-1.426,-1.4261,-1.4261,-1.4307,-1.4259,-1.4259,-1.4259,-1.4259,0,-1.447,-1.4469,-1.4437,-1.4435,-1.4435,-1.4409,-1.4409,-1.4395,-1.4379,-1.4374,-1.4349,-1.4345,-1.4316,-1.4309,-1.4291,-1.4289,-1.4286,-1.4276,-1.4271,-1.4278,-1.4279,-1.4272,-1.427,-1.426,-1.426,-1.426,-1.426,0,-1.4507,-1.4486,-1.448,-1.4455,-1.4449,-1.445,-1.4428,-1.4425,-1.4409,-1.4404,-1.4401,-1.4375,-1.4366,-1.4343,-1.4327,-1.4316,-1.4318,-1.431,-1.4325,-1.4321,-1.4333,-1.4332,-1.4375,-1.438,-1.4331,-1.4331,-1.4332,0,-1.4524,-1.4524,-1.45,-1.4495,-1.4484,-1.4477,-1.447,-1.4446,-1.444,-1.4421,-1.4421,-1.441,-1.44,-1.4387,-1.4367,-1.4356,-1.4346,-1.4362,-1.4344,-1.4351,-1.4346,-1.4346,-1.4346,-1.4365,-1.4366,-1.4367,-1.4367,0,-1.4558,-1.4548,-1.4539,-1.4527,-1.4519,-1.4509,-1.4496,-1.4494,-1.4467,-1.4462,-1.4453,-1.4445,-1.4431,-1.4421,-1.4407,-1.4395,-1.4377,-1.4374,-1.4375,-1.4381,-1.439,-1.4385,-1.4334,-1.4372,-1.4372,-1.4371,-1.4371,-1.4371,-1.4585,-1.4584,-1.4568,-1.4559,-1.4548,-1.4538,-1.4535,-1.4519,-1.4512,-1.4498,-1.4485,-1.4478,-1.4462,-1.4442,-1.4432,-1.4427,-1.4417,-1.4419,-1.442,-1.4421,-1.4424,-1.4392,-1.4424,-1.4424,-1.4424,-1.4424,-1.4424,0,-1.4617,-1.4606,-1.4598,-1.4583,-1.4577,-1.4562,-1.4549,-1.4545,-1.4539,-1.4526,-1.4518,-1.4509,-1.45,-1.4481,-1.447,-1.447,-1.4461,-1.4468,-1.4467,-1.4465,-1.4433,-1.4432,-1.4475,-1.4475,-1.4475,-1.4475,-1.4475,-1.4475,-1.4633,-1.463,-1.462,-1.4613,-1.4601,-1.4595,-1.4588,-1.458,-1.457,-1.4561,-1.4554,-1.4542,-1.4527,-1.4516,-1.4508,-1.4503,-1.45,-1.4509,-1.4501,-1.4471,-1.4467,-1.4462,-1.4461,-1.4509,-1.4509,-1.4533,-1.4533,-1.4533]},{"header":{"parameterUnit":"m.s-1","parameterCategory":1,"la1":30.2991,"la2":30.254,"lo1":-89.0895,"lo2":-89.0444,"dy":0.0017,"dx":0.0017,"nx":28,"ny":28,"refTime":"2024-09-01T09:00:00:Z","depth":0,"parameterNumber":3,"parameterNumberName":"V-component_of_WINDS"},"data":[0,0,0,0,0,0,0,0,0,0,0,0,0,0,0,0,0,0,0,0,0,0,0,0,0,0,0,0,0,0,0,0,0,0,0,0,0,0,0,0,0,0,0,0,0,0,0,0,0,0,0,0,0,0,0,0,0,0,2.5231,2.5231,0,2.5215,2.5214,2.5214,2.5256,2.5257,2.5258,2.5259,2.524,2.5239,2.5237,0,0,0,0,0,0,0,0,0,0,0,0,0,2.5295,2.5294,2.5231,2.5231,2.523,2.5215,2.5214,2.5214,2.5255,2.5257,2.5259,2.526,2.5241,2.5239,2.5237,0,0,0,0,0,0,0,0,0,0,0,0,0,2.5272,2.5293,2.5231,2.5249,2.5251,2.5215,2.5214,2.5214,2.5255,2.5257,2.5259,2.5261,2.5241,2.5239,2.5236,2.5181,0,0,2.5228,2.5227,0,0,0,0,0,0,0,0,2.5273,2.5269,2.5247,2.5248,2.5249,2.5239,2.523,2.5203,2.5255,2.5253,2.526,2.5262,2.5238,2.5236,2.5228,2.518,2.5179,2.5228,2.5227,2.5226,2.5225,0,0,0,0,0,0,0,2.5274,2.527,2.5224,2.5246,2.5248,2.5257,2.5256,2.5225,2.5235,2.5254,2.5257,2.5254,2.5239,2.5231,2.5228,2.5179,2.5228,2.5226,2.5224,2.5223,2.5085,2.5083,0,0,0,0,0,0,2.5274,2.5271,2.5225,2.5224,2.5266,2.5255,2.5253,2.524,2.5235,2.5236,2.5253,2.5256,2.5234,2.5231,2.5228,2.5163,2.5226,2.5223,2.5222,2.5087,2.5085,2.5082,0,0,0,0,0,0,2.5275,2.527,2.5225,2.5248,2.5243,2.5251,2.5237,2.5239,2.5231,2.5235,2.5236,2.5242,2.5236,2.5231,2.5193,2.5163,2.5222,2.522,2.509,2.5086,2.5083,2.5034,0,0,0,0,0,0,2.5277,2.527,2.5249,2.5248,2.5242,2.5191,2.5235,2.5237,2.5227,2.5231,2.5226,2.5226,2.5237,2.5196,2.519,2.5161,2.5218,2.5092,2.5088,2.5084,2.5038,2.5029,2.5021,0,0,0,0,0,2.5279,2.5235,2.5248,2.5242,2.5217,2.5189,2.5186,2.52,2.5224,2.5203,2.5206,2.5227,2.5167,2.5192,2.5185,2.5155,2.5094,2.5089,2.5085,2.5042,2.5031,2.5022,0,0,0,0,0,0,2.5232,2.5235,2.525,2.5204,2.5196,2.5197,2.5171,2.5188,2.5173,2.5178,2.5195,2.5193,2.5151,2.5149,2.5176,2.5101,2.5135,2.5128,2.5104,2.5094,2.5086,2.5088,2.5215,0,0,0,0,0,2.5217,2.5195,2.5199,2.5158,2.5153,2.5163,2.5151,2.5163,2.5155,2.5151,2.5151,2.5142,2.5122,2.5108,2.5089,2.5038,2.5037,2.5013,2.5005,2.4998,2.4993,2.4966,2.4955,2.5067,2.5067,2.5067,0,0,2.5184,2.5183,2.5168,2.5149,2.5144,2.512,2.516,2.5133,2.5115,2.5147,2.5111,2.511,2.5101,2.5056,2.5036,2.5053,2.4962,2.4992,2.4987,2.4985,2.496,2.4949,2.494,2.5063,2.5064,2.5065,0,0,2.5114,2.511,2.5077,2.5071,2.5064,2.5071,2.5062,2.506,2.5061,2.5025,2.5049,2.5028,2.4992,2.4985,2.4976,2.4903,2.4921,2.4896,2.4853,2.4827,2.4818,2.4811,2.4785,2.4775,2.489,2.489,2.489,0,2.5074,2.5041,2.5057,2.5029,2.5019,2.5048,2.5014,2.5007,2.4994,2.4986,2.5005,2.4962,2.4957,2.4911,2.4893,2.4885,2.4876,2.4897,2.4818,2.4811,2.4804,2.4779,2.477,2.4887,2.4888,2.4888,2.4888,0,2.4992,2.4969,2.4942,2.493,2.4917,2.4886,2.4897,2.4882,2.4894,2.4898,2.4861,2.4858,2.4839,2.4828,2.484,2.4784,2.4795,2.4816,2.485,2.479,2.4767,2.4758,2.4883,2.4884,2.4885,2.4886,0,0,2.4892,2.4889,2.4879,2.4874,2.4868,2.485,2.482,2.4802,2.4789,2.4779,2.4754,2.4723,2.4743,2.4733,2.4744,2.4721,2.4663,2.4745,2.4745,2.473,2.4602,2.4586,2.4575,2.4675,2.4674,2.4672,2.4603,0,2.4823,2.4772,2.4786,2.4736,2.4714,2.474,2.4714,2.4707,2.471,2.4692,2.4695,2.4673,2.47,2.4695,2.4673,2.4675,2.4638,2.468,2.4652,2.4651,2.4654,2.4563,2.4547,2.4482,2.4594,2.4592,2.4591,0,2.4735,2.4723,2.467,2.4668,2.466,2.4636,2.4621,2.4603,2.4596,2.46,2.4589,2.4604,2.4574,2.4608,2.4567,2.4595,2.4584,2.4584,2.4581,2.458,2.4618,2.456,2.4461,2.4451,2.4577,2.4578,2.4579,0,2.4668,2.4638,2.4603,2.4597,2.4594,2.4577,2.4574,2.4569,2.4558,2.4544,2.4537,2.452,2.4511,2.4497,2.4507,2.4531,2.4464,2.4499,2.4466,2.4466,2.4451,2.4452,2.435,2.4443,2.4443,2.4443,2.4443,0,2.459,2.4557,2.4573,2.4551,2.4515,2.453,2.4494,2.4494,2.4489,2.4468,2.4489,2.4468,2.4483,2.4463,2.447,2.4435,2.443,2.4432,2.4435,2.4431,2.4431,2.4424,2.4429,2.4441,2.4441,2.4442,2.4442,0,2.4509,2.4519,2.4482,2.4482,2.4481,2.4455,2.4454,2.4434,2.4438,2.4411,2.4405,2.4412,2.439,2.4399,2.4375,2.438,2.4335,2.4343,2.4338,2.434,2.4307,2.431,2.4198,2.4184,2.4285,2.4284,2.4284,0,2.4459,2.4435,2.4432,2.442,2.4416,2.4396,2.4385,2.4399,2.4386,2.4376,2.4357,2.4336,2.4321,2.4284,2.4287,2.4268,2.4277,2.4239,2.4274,2.4271,2.4277,2.4279,2.4276,2.4232,2.423,2.4229,2.4229,0,2.4369,2.4375,2.4359,2.4344,2.433,2.4319,2.4309,2.4298,2.4311,2.4296,2.4274,2.4262,2.4238,2.4218,2.4202,2.4199,2.4216,2.4217,2.4209,2.4205,2.4203,2.4204,2.4319,2.422,2.4221,2.4222,2.4222,2.4222,2.4303,2.4283,2.4278,2.4259,2.4253,2.4244,2.4225,2.4227,2.421,2.4192,2.4201,2.4176,2.4168,2.4149,2.4143,2.4123,2.4138,2.4125,2.4122,2.4119,2.4115,2.4206,2.412,2.412,2.412,2.4121,2.4121,0,2.4215,2.4213,2.4196,2.4182,2.4167,2.4185,2.4175,2.4161,2.4139,2.4131,2.4116,2.4091,2.4071,2.4072,2.4054,2.4037,2.4045,2.4032,2.4034,2.4033,2.4103,2.4112,2.4026,2.4026,2.4026,2.4026,2.4027,2.4027,2.4168,2.4134,2.4139,2.4103,2.4101,2.4077,2.407,2.4062,2.4056,2.4027,2.4011,2.4012,2.4007,2.3989,2.3972,2.3972,2.3965,2.3949,2.3953,2.4018,2.4028,2.4037,2.4046,2.3947,2.3947,2.3885,2.3884,2.3884]}]]